Weather History for Defiance, OH

Change the Weather History Date:

Friday, October 28, 2011

  Actual Average Record
Temperature  
Mean Temperature 41 °F -  
Max Temperature 53 °F 60 °F 78 °F (1984)
Min Temperature 30 °F 36 °F 20 °F (1976)
Degree Days  
Heating Degree Days 24    
Moisture  
Dew Point 30 °F    
Average Humidity 79    
Maximum Humidity 93    
Minimum Humidity 41    
Precipitation  
Precipitation 0.02 in - - ()
Sea Level Pressure  
Sea Level Pressure 30.17 in    
Wind  
Wind Speed 0 mph (NE)    
Max Wind Speed 5 mph    
Max Gust Speed -    
Visibility 7 miles    
Events      
Averages and records for this station are not official NWS values.
T = Trace of Precipitation, MM = Missing Value Source: NWS Daily Summary

Daily Weather History Graph

Daily Weather History Graph

Search for Another Location

Airport:

Trip Planner

Search our weather history database for the weather conditions in past years. The results will help you decide how hot, cold, wet, or windy it might be!

Date:

Astronomy

Oct. 28, 2011 Rise Set
Actual Time 8:04 AM EDT 6:38 PM EDT
Civil Twilight 7:35 AM EDT 7:06 PM EDT
Nautical Twilight 7:03 AM EDT 7:39 PM EDT
Astronomical Twilight 6:31 AM EDT 8:11 PM EDT
Moon 10:20 AM EDT (10/28) 7:58 PM EDT (10/28)
Length of Visible Light 11h 31m
Length of Day
10h 34m
Waxing Crescent, 5% of the Moon is Illuminated
Oct 28
Waxing Crescent
Nov 2
First Quarter
Nov 10
Full
Nov 18
Last Quarter
Nov 25
New

Hourly Weather History & Observations

Time (EDT) Temp. Windchill Dew Point Humidity Pressure Visibility Wind Dir Wind Speed Gust Speed Precip Events Conditions
12:53 AM 34.0 °F - 32.0 °F 92% 30.16 in 10.0 mi Calm Calm - N/A   Clear
1:53 AM 33.1 °F - 30.9 °F 92% 30.17 in 9.0 mi Calm Calm - N/A   Clear
2:53 AM 32.0 °F - 30.0 °F 92% 30.17 in 9.0 mi Calm Calm - N/A   Clear
3:53 AM 33.1 °F - 30.0 °F 89% 30.18 in 8.0 mi Calm Calm - N/A   Clear
4:53 AM 30.9 °F - 28.0 °F 89% 30.19 in 7.0 mi Calm Calm - N/A   Clear
5:23 AM 30.2 °F - 28.4 °F 93% 30.17 in 1.8 mi Calm Calm - N/A   Partly Cloudy
5:27 AM 30.2 °F - 28.4 °F 93% 30.17 in 0.8 mi Calm Calm - N/A   Mist
5:36 AM 30.2 °F - 28.4 °F 93% 30.17 in 1.2 mi Calm Calm - N/A   Partly Cloudy
5:40 AM 30.2 °F - 28.4 °F 93% 30.17 in 2.5 mi Calm Calm - N/A   Partly Cloudy
5:53 AM 30.9 °F - 28.0 °F 89% 30.20 in 7.0 mi Calm Calm - N/A   Clear
6:01 AM 30.2 °F - 28.4 °F 93% 30.18 in 2.5 mi Calm Calm - N/A   Partly Cloudy
6:07 AM 30.2 °F - 28.4 °F 93% 30.18 in 1.8 mi Calm Calm - N/A   Partly Cloudy
6:10 AM 30.2 °F - 28.4 °F 93% 30.18 in 2.5 mi Calm Calm - N/A   Partly Cloudy
6:17 AM 32.0 °F - 28.4 °F 87% 30.18 in 4.0 mi Calm Calm - N/A   Partly Cloudy
6:53 AM 30.0 °F - 28.0 °F 92% 30.20 in 2.5 mi Calm Calm - N/A   Clear
6:56 AM 30.2 °F - 28.4 °F 93% 30.18 in 1.8 mi Calm Calm - N/A   Clear
7:02 AM 30.2 °F - 28.4 °F 93% 30.18 in 2.5 mi Calm Calm - N/A   Clear
7:09 AM 30.2 °F - 28.4 °F 93% 30.18 in 5.0 mi Calm Calm - N/A   Clear
7:53 AM 30.0 °F 25.2 °F 27.0 °F 88% 30.21 in 7.0 mi North 4.6 mph - N/A   Clear
8:53 AM 30.9 °F - 28.0 °F 89% 30.23 in 5.0 mi Calm Calm - N/A   Clear
9:53 AM 37.0 °F - 34.0 °F 89% 30.24 in 10.0 mi Calm Calm - 0.02 in   Clear
10:53 AM - - - N/A% 30.22 in - North - - N/A   Unknown
11:53 AM - - - N/A% 30.21 in - North - - N/A   Unknown
12:53 PM 46.9 °F - 30.0 °F 52% 30.21 in 10.0 mi Calm Calm - N/A   Clear
1:53 PM 48.9 °F - 32.0 °F 52% 30.18 in 10.0 mi Calm Calm - N/A   Clear
2:53 PM 50.0 °F - 30.9 °F 48% 30.15 in 10.0 mi Calm Calm - N/A   Partly Cloudy
3:53 PM 52.0 °F - 30.0 °F 43% 30.13 in 10.0 mi Variable 4.6 mph - N/A   Clear
4:53 PM 52.0 °F - 28.9 °F 41% 30.13 in 10.0 mi NW 3.5 mph - N/A   Scattered Clouds
5:53 PM 48.9 °F - 28.9 °F 46% 30.13 in 10.0 mi ESE 3.5 mph - N/A   Clear
6:53 PM 48.0 °F - 28.9 °F 48% 30.13 in 10.0 mi SE 3.5 mph - N/A   Clear
8:53 PM 42.1 °F - 32.0 °F 67% 30.14 in 10.0 mi Calm Calm - N/A   Partly Cloudy
9:53 PM 43.0 °F - 30.9 °F 62% 30.13 in 10.0 mi Calm Calm - N/A   Overcast
10:53 PM 41.0 °F - 32.0 °F 70% 30.11 in 10.0 mi Calm Calm - N/A   Overcast
11:53 PM 41.0 °F - 32.0 °F 70% 30.11 in 10.0 mi Calm Calm - N/A   Overcast